Worthington, MN

6:57 AM CDT on May 24, 2017 (GMT -0500)
Worthington Municipal

Weather History for KOTG - January, 2014

Change the Weather History Date:

Wednesday, January 15, 2014

  Actual Average Record
Temperature  
Mean Temperature 18 °F -  
Max Temperature 35 °F 21 °F 49 °F (1990)
Min Temperature 0 °F 6 °F -29 °F (1972)
Degree Days  
Heating Degree Days 48    
Moisture  
Dew Point 7 °F    
Average Humidity 65    
Maximum Humidity 78    
Minimum Humidity 55    
Precipitation  
Precipitation 0.00 in - - ()
Sea Level Pressure  
Sea Level Pressure 29.88 in    
Wind  
Wind Speed 15 mph (WSW)    
Max Wind Speed 26 mph    
Max Gust Speed 36 mph    
Visibility 10 miles    
Events      
Averages and records for this station are not official NWS values.
T = Trace of Precipitation, MM = Missing Value Source: NWS Daily Summary

Daily Weather History Graph

Daily Weather History Graph

Search for Another Location

Airport or City:

Trip Planner

Search our weather history database for the weather conditions in past years. The results will help you decide how hot, cold, wet, or windy it might be!

Date:

Astronomy

Jan. 15, 2014 Rise Set
Actual Time 7:52 AM CST 5:11 PM CST
Civil Twilight 7:20 AM CST 5:43 PM CST
Nautical Twilight 6:45 AM CST 6:18 PM CST
Astronomical Twilight 6:11 AM CST 6:52 PM CST
Moon 5:11 PM CST (1/15) 7:07 AM CST (1/15)
Length of Visible Light 10h 22m
Length of Day
9h 18m
Full, 100% of the Moon is Illuminated
Jan 15
Full
Jan 15
Full
Jan 23
Last Quarter
Jan 30
New
Feb 6
First Quarter

Hourly Weather History & Observations

Time (CST) Temp. Windchill Dew Point Humidity Pressure Visibility Wind Dir Wind Speed Gust Speed Precip Events Conditions
12:15 AM 12.2 °F -7.5 °F 3.2 °F 67% 30.14 in 10.0 mi NNW 24.2 mph 27.6 mph N/A   Overcast
12:35 AM 12.2 °F -6.7 °F 1.4 °F 62% 30.14 in 10.0 mi NNW 21.9 mph 26.5 mph N/A   Overcast
12:55 AM 12.2 °F -3.7 °F 1.4 °F 62% 30.14 in 10.0 mi NNW 15.0 mph - N/A   Overcast
1:15 AM 12.2 °F -4.3 °F 1.4 °F 62% 30.14 in 10.0 mi NNW 16.1 mph - N/A   Overcast
1:35 AM 10.4 °F -7.2 °F 1.4 °F 67% 30.13 in 10.0 mi NNW 17.3 mph - N/A   Overcast
1:55 AM 10.4 °F -4.1 °F 1.4 °F 67% 30.13 in 10.0 mi NNW 11.5 mph - N/A   Overcast
2:15 AM 10.4 °F -4.8 °F 1.4 °F 67% 30.14 in 10.0 mi NNW 12.7 mph - N/A   Overcast
2:35 AM 10.4 °F -4.1 °F 1.4 °F 67% 30.15 in 10.0 mi NNW 11.5 mph - N/A   Overcast
2:55 AM 10.4 °F -4.8 °F 1.4 °F 67% 30.15 in 10.0 mi NW 12.7 mph - N/A   Overcast
3:15 AM 10.4 °F -4.1 °F 1.4 °F 67% 30.15 in 10.0 mi NW 11.5 mph - N/A   Overcast
3:35 AM 10.4 °F -4.1 °F 1.4 °F 67% 30.14 in 10.0 mi NW 11.5 mph - N/A   Overcast
3:55 AM 10.4 °F -2.4 °F 1.4 °F 67% 30.14 in 10.0 mi NW 9.2 mph - N/A   Overcast
4:15 AM 10.4 °F -2.4 °F 1.4 °F 67% 30.14 in 10.0 mi WNW 9.2 mph - N/A   Overcast
4:35 AM 8.6 °F -4.7 °F 1.4 °F 73% 30.13 in 10.0 mi West 9.2 mph - N/A   Overcast
4:55 AM 8.6 °F -4.7 °F -0.4 °F 67% 30.13 in 10.0 mi West 9.2 mph - N/A   Overcast
5:15 AM 6.8 °F -4.8 °F -0.4 °F 72% 30.12 in 10.0 mi West 6.9 mph - N/A   Overcast
5:35 AM 6.8 °F -3.5 °F -2.2 °F 67% 30.10 in 10.0 mi West 5.8 mph - N/A   Mostly Cloudy
5:55 AM 3.2 °F -10.3 °F -4.0 °F 72% 30.10 in 10.0 mi West 8.1 mph - N/A   Clear
6:15 AM 3.2 °F -9.1 °F -5.8 °F 66% 30.09 in 10.0 mi West 6.9 mph - N/A   Clear
6:35 AM 1.4 °F -11.3 °F -5.8 °F 72% 30.09 in 10.0 mi West 6.9 mph - N/A   Clear
6:55 AM 1.4 °F -8.3 °F -5.8 °F 72% 30.09 in 10.0 mi West 4.6 mph - N/A   Clear
7:15 AM -0.4 °F - -7.6 °F 72% 30.07 in 10.0 mi Calm Calm - N/A   Clear
7:35 AM -0.4 °F - -5.8 °F 78% 30.06 in 10.0 mi Calm Calm - N/A   Clear
7:55 AM -0.4 °F -14.7 °F -5.8 °F 78% 30.08 in 10.0 mi WSW 8.1 mph - N/A   Clear
8:15 AM -0.4 °F -12.0 °F -5.8 °F 78% 30.07 in 10.0 mi SW 5.8 mph - N/A   Clear
8:35 AM 1.4 °F -6.2 °F -4.0 °F 78% 30.07 in 10.0 mi WSW 3.5 mph - N/A   Clear
8:55 AM 3.2 °F -6.2 °F -2.2 °F 78% 30.07 in 10.0 mi SW 4.6 mph - N/A   Clear
9:15 AM 3.2 °F -6.2 °F -2.2 °F 78% 30.07 in 10.0 mi SSW 4.6 mph - N/A   Clear
9:35 AM 5.0 °F -4.1 °F -2.2 °F 72% 30.06 in 10.0 mi South 4.6 mph - N/A   Clear
9:55 AM 5.0 °F -5.6 °F -2.2 °F 72% 30.04 in 10.0 mi South 5.8 mph - N/A   Clear
10:15 AM 6.8 °F -6.9 °F -0.4 °F 72% 30.03 in 10.0 mi South 9.2 mph - N/A   Clear
10:35 AM 8.6 °F -4.7 °F 1.4 °F 73% 30.02 in 10.0 mi SSW 9.2 mph - N/A   Clear
10:55 AM 10.4 °F -4.1 °F 1.4 °F 67% 30.01 in 10.0 mi SSW 11.5 mph - N/A   Clear
11:15 AM 12.2 °F -2.5 °F 1.4 °F 62% 29.99 in 10.0 mi SSW 12.7 mph - N/A   Clear
11:35 AM 12.2 °F -4.3 °F 3.2 °F 67% 29.96 in 10.0 mi SW 16.1 mph - N/A   Mostly Cloudy
11:55 AM 14.0 °F -2.5 °F 3.2 °F 62% 29.95 in 10.0 mi SSW 17.3 mph 21.9 mph N/A   Mostly Cloudy
12:15 PM 14.0 °F -2.5 °F 3.2 °F 62% 29.92 in 10.0 mi SSW 17.3 mph - N/A   Mostly Cloudy
12:35 PM 15.8 °F 1.4 °F 3.2 °F 58% 29.89 in 10.0 mi SSW 13.8 mph - N/A   Overcast
12:55 PM 15.8 °F -1.1 °F 3.2 °F 58% 29.87 in 10.0 mi SSW 19.6 mph - N/A   Overcast
1:15 PM 15.8 °F -0.2 °F 5.0 °F 62% 29.84 in 10.0 mi SSW 17.3 mph 23.0 mph N/A   Mostly Cloudy
1:35 PM 17.6 °F 1.3 °F 5.0 °F 58% 29.81 in 10.0 mi SSW 19.6 mph - N/A   Mostly Cloudy
1:55 PM 17.6 °F 2.2 °F 6.8 °F 63% 29.80 in 10.0 mi SSW 17.3 mph - N/A   Mostly Cloudy
2:15 PM 19.4 °F 2.8 °F 6.8 °F 58% 29.77 in 10.0 mi SSW 21.9 mph 27.6 mph N/A   Scattered Clouds
2:35 PM 19.4 °F 4.5 °F 8.6 °F 63% 29.76 in 10.0 mi South 17.3 mph 24.2 mph N/A   Partly Cloudy
2:55 PM 21.2 °F 6.0 °F 8.6 °F 58% 29.74 in 10.0 mi South 19.6 mph 26.5 mph N/A   Mostly Cloudy
3:15 PM 21.2 °F 5.6 °F 10.4 °F 63% 29.73 in 10.0 mi South 20.7 mph 24.2 mph N/A   Overcast
3:35 PM 21.2 °F 4.5 °F 10.4 °F 63% 29.71 in 10.0 mi South 24.2 mph 31.1 mph N/A   Overcast
3:55 PM 21.2 °F 4.2 °F 10.4 °F 63% 29.70 in 10.0 mi SSW 25.3 mph - N/A   Scattered Clouds
4:15 PM 23.0 °F 7.2 °F 12.2 °F 63% 29.70 in 10.0 mi SSW 23.0 mph 28.8 mph N/A   Scattered Clouds
4:35 PM 23.0 °F 6.9 °F 10.4 °F 59% 29.68 in 10.0 mi SSW 24.2 mph 33.4 mph N/A   Overcast
4:55 PM 23.0 °F 6.3 °F 12.2 °F 63% 29.66 in 10.0 mi SSW 26.5 mph 35.7 mph N/A   Mostly Cloudy
5:15 PM 24.8 °F 10.3 °F 12.2 °F 59% 29.66 in 10.0 mi SSW 20.7 mph 32.2 mph N/A   Scattered Clouds
5:35 PM 24.8 °F 9.6 °F 12.2 °F 59% 29.65 in 10.0 mi South 23.0 mph 29.9 mph N/A   Mostly Cloudy
5:55 PM 24.8 °F 10.3 °F 12.2 °F 59% 29.64 in 10.0 mi SSW 20.7 mph 27.6 mph N/A   Mostly Cloudy
6:15 PM 24.8 °F 9.3 °F 14.0 °F 64% 29.63 in 10.0 mi SSW 24.2 mph 28.8 mph N/A   Clear
6:35 PM 26.6 °F 11.4 °F 12.2 °F 55% 29.61 in 10.0 mi SSW 25.3 mph 29.9 mph N/A   Clear
6:55 PM 26.6 °F 12.0 °F 14.0 °F 59% 29.61 in 10.0 mi SSW 23.0 mph - N/A   Clear
7:15 PM 26.6 °F 12.7 °F 14.0 °F 59% 29.61 in 10.0 mi SSW 20.7 mph - N/A   Clear
7:35 PM 26.6 °F 12.0 °F 15.8 °F 64% 29.60 in 10.0 mi SW 23.0 mph - N/A   Scattered Clouds
7:55 PM 28.4 °F 14.1 °F 15.8 °F 59% 29.61 in 10.0 mi SW 24.2 mph - N/A   Scattered Clouds
8:15 PM 30.2 °F 17.1 °F 17.6 °F 60% 29.61 in 10.0 mi WSW 21.9 mph 27.6 mph N/A   Partly Cloudy
8:35 PM 30.2 °F 16.8 °F 19.4 °F 64% 29.57 in 10.0 mi SW 23.0 mph 27.6 mph N/A   Scattered Clouds
8:55 PM 33.8 °F 22.2 °F 21.2 °F 60% 29.55 in 10.0 mi SW 20.7 mph - N/A   Mostly Cloudy
9:15 PM 33.8 °F 22.8 °F 21.2 °F 60% 29.57 in 10.0 mi WSW 18.4 mph - N/A   Scattered Clouds
9:35 PM 33.8 °F 23.5 °F 21.2 °F 60% 29.55 in 10.0 mi SW 16.1 mph - N/A   Clear
9:55 PM 33.8 °F 22.5 °F 21.2 °F 60% 29.56 in 10.0 mi WSW 19.6 mph - N/A   Clear
10:15 PM 33.8 °F 22.8 °F 23.0 °F 65% 29.56 in 10.0 mi WSW 18.4 mph - N/A   Clear
10:35 PM 33.8 °F 23.2 °F 23.0 °F 65% 29.55 in 10.0 mi WSW 17.3 mph - N/A   Clear
10:55 PM 33.8 °F 22.8 °F 23.0 °F 65% 29.56 in 10.0 mi West 18.4 mph - N/A   Clear
11:15 PM 35.6 °F 25.2 °F 24.8 °F 65% 29.56 in 10.0 mi West 18.4 mph - N/A   Clear
11:35 PM 33.8 °F 23.2 °F 24.8 °F 70% 29.55 in 10.0 mi West 17.3 mph - N/A   Clear
11:55 PM 35.6 °F 24.2 °F 24.8 °F 65% 29.55 in 10.0 mi West 21.9 mph - N/A   Clear